This demonstration page uses our WeatherBlox Daily Observations layout. Learn more.

Left ArrowRight Arrow

39.51506, -84.39828

Hourly Observations for June 25, 2019

Temp ( °F °C ) Dew Point ( °F °C ) Humidity (%) Winds ( mph kmh ) Pressure ( in mb ) Visibility ( mi km ) Precip ( " mm )
12:15 am 00:15 Mostly Cloudy 68 20.1 67 19.2 95 95 SW 6 9 29.81 1010 10 16 N/A
12:35 am 00:35 Mostly Cloudy 68 20.2 66 19.1 93 93 WSW 6 9 29.82 1010 10 16 N/A
12:55 am 00:55 Cloudy 69 20.6 67 19.3 92 92 WSW 7 11 29.82 1010 10 16 N/A
1:15 am 01:15 Partly Cloudy 69 20.5 66 19.1 92 92 WSW 7 11 29.82 1010 10 16 N/A
1:35 am 01:35 Clear 67 19.7 66 18.8 95 95 SW 7 11 29.83 1010 10 16 N/A
1:55 am 01:55 Clear 67 19.4 66 18.7 96 96 SW 6 9 29.85 1011 10 16 N/A
2:15 am 02:15 Clear 66 18.9 65 18.4 97 97 WSW 5 7 29.85 1011 10 16 N/A
2:35 am 02:35 Clear 65 18.3 64 17.9 98 98 WSW 3 6 29.86 1011 10 16 N/A
2:55 am 02:55 Clear 65 18.4 64 17.9 97 97 W 3 6 29.86 1011 10 16 N/A
3:15 am 03:15 Clear 64 17.9 64 17.6 98 98 WSW 3 6 29.86 1011 10 16 N/A
3:35 am 03:35 Clear 64 17.7 63 17.4 98 98 SW 5 7 29.87 1012 10 16 N/A
3:55 am 03:55 Clear 64 17.6 63 17.3 98 98 WSW 5 7 29.87 1012 10 16 N/A
4:15 am 04:15 Clear 64 17.5 63 17.3 99 99 SW 6 9 29.87 1012 10 16 N/A
4:35 am 04:35 Clear 63 17.3 63 17.1 99 99 SW 6 9 29.88 1012 7 11 N/A
4:55 am 04:55 Clear 63 17.2 63 17 99 99 WSW 5 7 29.89 1012 10 16 N/A
5:15 am 05:15 Clear with Mist and Fog 63 17 62 16.9 99 99 WSW 3 6 29.90 1013 7 11 N/A
5:35 am 05:35 Clear with Mist and Fog 62 16.7 62 16.5 99 99 SW 5 7 29.91 1013 4 6 N/A
5:55 am 05:55 Mostly Cloudy with Mist and Fog 61 16.2 61 16.1 99 99 SW 5 7 29.91 1013 1 1 N/A
6:15 am 06:15 Sunny with Mist and Fog 61 16.2 61 16.1 99 99 WSW 6 9 29.92 1013 3 4 N/A
6:35 am 06:35 Sunny with Mist and Fog 62 16.6 62 16.5 99 99 WSW 5 7 29.93 1014 4 6 N/A
6:55 am 06:55 Sunny with Mist and Fog 63 17.2 63 17.1 99 99 WSW 5 7 29.94 1014 7 11 N/A
7:15 am 07:15 Sunny 64 17.8 64 17.6 99 99 SW 3 6 29.95 1014 7 11 N/A
7:35 am 07:35 Sunny 65 18.3 64 18 98 98 SW 6 9 29.95 1014 10 16 N/A
7:55 am 07:55 Sunny 66 19 65 18.1 95 95 SW 6 9 29.96 1014 10 16 N/A
8:15 am 08:15 Sunny 67 19.7 64 17.9 89 89 SW 7 11 29.96 1014 10 16 N/A
8:35 am 08:35 Sunny 69 20.7 65 18.1 85 85 W 9 15 29.96 1015 10 16 N/A
8:55 am 08:55 Sunny 70 21.3 65 18.1 82 82 W 7 11 29.97 1015 10 16 N/A
9:15 am 09:15 Sunny 72 22.1 64 18 78 78 W 8 13 29.98 1015 10 16 N/A
9:35 am 09:35 Sunny 73 22.8 64 17.9 74 74 W 9 15 29.98 1015 10 16 N/A
9:55 am 09:55 Sunny 74 23.5 65 18.1 72 72 WSW 9 15 29.98 1015 10 16 N/A
10:15 am 10:15 Sunny 75 24 63 17.4 67 67 W 8 13 29.98 1015 10 16 N/A
10:35 am 10:35 Sunny 76 24.3 63 17 64 64 W 9 15 29.98 1015 10 16 N/A
10:55 am 10:55 Sunny 77 24.9 63 17.2 62 62 W 10 17 29.98 1015 10 16 N/A
11:15 am 11:15 Sunny 78 25.3 62 16.6 59 59 W 9 15 29.99 1016 10 16 N/A
11:35 am 11:35 Sunny 78 25.6 62 16.6 58 58 W 13 20 29.99 1016 10 16 N/A
11:55 am 11:55 Sunny 79 26.1 62 16.6 56 56 WSW 14 22 29.99 1016 10 16 N/A
12:15 pm 12:15 Partly Cloudy 79 26.3 62 16.7 56 56 WSW 9 15 30.00 1016 10 16 N/A
12:35 pm 12:35 Sunny 80 26.8 61 16.3 53 53 W 10 17 30.00 1016 10 16 N/A
12:55 pm 12:55 Sunny 81 27.1 62 16.8 53 53 WSW 10 17 30.00 1016 10 16 N/A
1:15 pm 13:15 Partly Cloudy 81 27.2 61 16.1 51 51 SW 12 19 30.00 1016 10 16 N/A
1:35 pm 13:35 Partly Cloudy 81 27.3 61 16.3 51 51 W 15 24 30.00 1016 10 16 N/A
1:55 pm 13:55 Sunny 82 27.5 61 16 50 50 W 10 17 30.00 1016 10 16 N/A
2:15 pm 14:15 Sunny 82 27.7 60 15.3 47 47 WSW 7 11 29.99 1015 10 16 N/A
2:35 pm 14:35 Sunny 82 27.8 59 15.1 46 46 W 10 17 29.99 1015 10 16 N/A
2:55 pm 14:55 Sunny 83 28.3 61 16.2 48 48 WSW 13 20 29.99 1015 10 16 N/A
3:15 pm 15:15 Sunny 83 28.1 61 15.9 47 47 W 14 22 29.99 1015 10 16 N/A
3:35 pm 15:35 Sunny 83 28.2 60 15.6 46 46 WSW 9 15 29.98 1015 10 16 N/A
3:55 pm 15:55 Sunny 83 28.4 61 16.1 47 47 W 9 15 29.98 1015 10 16 N/A
4:15 pm 16:15 Partly Cloudy 83 28.4 60 15.8 46 46 WSW 12 19 29.98 1015 10 16 N/A
4:35 pm 16:35 Sunny 83 28.6 62 16.4 48 48 W 7 11 29.98 1015 10 16 N/A
4:55 pm 16:55 Sunny 83 28.5 61 16.1 47 47 WSW 9 15 29.97 1015 10 16 N/A
5:15 pm 17:15 Sunny 83 28.5 61 16.2 47 47 W 12 19 29.97 1015 10 16 N/A
5:35 pm 17:35 Sunny 83 28.3 61 16 47 47 SW 12 19 29.97 1015 10 16 N/A
5:55 pm 17:55 Sunny 83 28.1 60 15.8 47 47 WSW 13 20 29.97 1015 10 16 N/A
6:15 pm 18:15 Sunny 83 28.1 62 16.7 50 50 WSW 8 13 29.97 1015 10 16 N/A
6:35 pm 18:35 Sunny 82 27.9 61 15.9 48 48 SW 12 19 29.96 1014 10 16 N/A
6:55 pm 18:55 Sunny 82 27.8 61 16.2 49 49 SW 10 17 29.96 1014 10 16 N/A
7:15 pm 19:15 Sunny 81 27.3 61 15.9 50 50 SW 12 19 29.96 1014 10 16 N/A
7:35 pm 19:35 Sunny 81 27 61 16.1 51 51 SW 8 13 29.97 1015 10 16 N/A
7:55 pm 19:55 Sunny 80 26.4 61 16.3 54 54 SW 9 15 29.98 1015 10 16 N/A
8:15 pm 20:15 Sunny 79 26 61 16.1 54 54 SW 9 15 29.98 1015 10 16 N/A
8:35 pm 20:35 Sunny 76 24.7 62 16.9 62 62 SW 7 11 29.98 1015 10 16 N/A
8:55 pm 20:55 Sunny 75 23.7 62 16.9 66 66 SW 8 13 29.99 1015 10 16 N/A
9:15 pm 21:15 Partly Cloudy 73 22.5 63 17.3 73 73 SW 5 7 29.99 1016 10 16 N/A
9:35 pm 21:35 Mostly Cloudy 71 21.8 64 17.7 78 78 SW 6 9 30.00 1016 10 16 N/A
9:55 pm 21:55 Clear 69 20.4 64 17.9 86 86 WSW 5 7 30.00 1016 10 16 N/A
10:15 pm 22:15 Clear 68 20.2 63 17.2 83 83 WSW 3 6 30.01 1016 10 16 N/A
10:35 pm 22:35 Clear 67 19.4 64 17.5 89 89 SW 6 9 30.02 1016 10 16 N/A
10:55 pm 22:55 Clear 66 18.9 64 17.7 93 93 WSW 5 7 30.02 1016 10 16 N/A
11:15 pm 23:15 Clear 67 19.3 64 17.6 90 90 SW 3 6 30.03 1017 10 16 N/A
11:35 pm 23:35 Clear 66 18.8 63 17.2 90 90 SW 3 6 30.03 1017 10 16 N/A
11:55 pm 23:55 Clear 66 18.9 63 17.1 89 89 SW 3 6 30.04 1017 10 16 N/A

Powered by AerisWeather